Flag for Romania Weather past 2 weeks in Timișoara, Romania

Now
63 °F

Sunny.


Feels Like: 63 °F
Forecast: 57 / 73 °F
Wind: 2 mph from North

Location: Timisoara Airport

Current Time: Sep 16, 2014 at 10:55:27 AM

Latest Report: Sep 16, 2014 at 10:30 AM


Visibility: 10 mi

Pressure: 30.07 "Hg

Humidity: 94%

Dew point: 61 °F

Location of TimișoaraLocation

Historic Weather in Timișoara — Graph

°F

Timișoara temperature yesterday

Maximum temperature yesterday: 64 °F (at 11:30 AM)
Minimum temperature yesterday: 59 °F (at 3:00 PM)
Average temperature yesterday: 61 °F

Past Weeks' High & Low Weather Summary

 TemperatureHumidityPressure
High84 °F (Sep 11, 4:00 PM)100% (Sep 2, 2:00 AM)30.07 "Hg (Sep 2, 2:00 AM)
Low55 °F (Sep 9, 6:30 AM)42% (Sep 9, 6:00 PM)29.74 "Hg (Sep 1, 3:00 PM)
Average68 °F85%29.92 "Hg
* Reported Sep 1 10:00 AM — Sep 16 10:00 AM, Timișoara, Weather by CustomWeather, © 2014

Note: Actual official high and low records may vary slightly from our data, if they occured in-between our weather recording intervals... More about our weather records

Advertising

Timișoara weather history for previous 24 hours

 ConditionsComfort  
Time TempWeatherWind HumidityBarometerVisibility
10:00 AM
Sep 16
61 °FPassing clouds.5 mph100%30.07 "HgN/A
9:30 AM61 °FPassing clouds.3 mph94%30.07 "HgN/A
9:00 AM59 °FPassing clouds.5 mph100%30.07 "HgN/A
8:30 AM59 °FPassing clouds.3 mph100%30.07 "Hg4 mi
8:00 AM59 °FSprinkles. Fog.2 mph100%30.07 "Hg2 mi
7:30 AM59 °FSprinkles. Passing clouds.3 mph100%30.07 "Hg4 mi
7:00 AM59 °FClear.1 mph94%30.07 "Hg5 mi
6:30 AM59 °FClear.No wind94%30.07 "Hg5 mi
6:00 AM59 °FPassing clouds.No wind94%30.04 "Hg5 mi
5:30 AM59 °FPassing clouds.No wind94%30.04 "Hg5 mi
5:00 AM59 °FSprinkles. Passing clouds.No wind94%30.04 "HgN/A
4:30 AM59 °FSprinkles. Passing clouds.2 mph100%30.04 "HgN/A
4:00 AM59 °FPassing clouds.No wind100%30.04 "HgN/A
3:30 AM59 °FPassing clouds.1 mph100%30.04 "HgN/A
3:00 AM59 °FSprinkles. Passing clouds.2 mph100%30.04 "HgN/A
2:30 AM59 °FSprinkles. Passing clouds.2 mph100%30.04 "HgN/A
2:00 AM59 °FSprinkles. Passing clouds.2 mph100%30.04 "HgN/A
1:30 AM59 °FSprinkles. Passing clouds.No wind100%30.04 "HgN/A
1:00 AM59 °FPassing clouds.1 mph100%30.04 "HgN/A
12:30 AM59 °FPassing clouds.1 mph100%30.04 "HgN/A
12:00 AM59 °FSprinkles. Passing clouds.2 mph100%30.04 "HgN/A
11:30 PM
Sep 15
61 °FPassing clouds.No wind94%30.04 "HgN/A
11:00 PM61 °FPassing clouds.2 mph94%30.04 "HgN/A
10:30 PM61 °FPassing clouds.1 mph94%30.04 "HgN/A
10:00 PM61 °FPassing clouds.6 mph94%30.04 "HgN/A
9:30 PM61 °FPassing clouds.3 mph94%30.04 "HgN/A
9:00 PM61 °FPassing clouds.3 mph94%30.04 "HgN/A
8:30 PM61 °FPassing clouds.3 mph94%30.04 "HgN/A
8:00 PM61 °FPassing clouds.3 mph94%30.04 "HgN/A
7:30 PM61 °FPassing clouds.3 mph100%30.01 "HgN/A
7:00 PM61 °FPassing clouds.2 mph100%30.04 "HgN/A
6:30 PM63 °FPassing clouds.2 mph94%30.01 "HgN/A
6:00 PM63 °FPassing clouds.2 mph94%30.01 "HgN/A
5:30 PM61 °FPassing clouds.1 mph100%30.01 "HgN/A
5:00 PM61 °FScattered clouds.2 mph100%30.04 "HgN/A
4:30 PM59 °FLight rain. Scattered clouds.2 mph100%30.04 "HgN/A
4:00 PM59 °FRain. Fog.2 mph94%30.04 "Hg3 mi
3:30 PM59 °FLight rain. Partly sunny.5 mph94%30.04 "Hg4 mi
3:00 PM59 °FSprinkles. Partly sunny.9 mph94%30.04 "Hg3 mi
2:30 PM61 °FLight rain. Scattered clouds.9 mph94%30.04 "Hg4 mi
2:00 PM61 °FLight rain. Passing clouds.7 mph94%30.04 "HgN/A
1:30 PM63 °FPassing clouds.7 mph94%30.04 "HgN/A
1:00 PM63 °FPassing clouds.7 mph94%30.04 "HgN/A
12:30 PM63 °FLight rain. Passing clouds.8 mph100%30.04 "HgN/A
12:00 PM64 °FPassing clouds.7 mph94%30.01 "HgN/A
11:30 AM64 °FLight rain. Partly sunny.6 mph94%30.01 "HgN/A
11:00 AM63 °FPartly sunny.5 mph100%30.01 "HgN/A
10:30 AM63 °FSprinkles. Partly sunny.5 mph100%30.01 "HgN/A
10:00 AM63 °FBroken clouds.1 mph100%30.01 "HgN/A
Weather by CustomWeather, © 2014

See weather overviewHow to use our weather pages